SCP
0 0 0 0 0 0 0 0 0 0 0 0 0 0 0 0 0 0 0 0 0 0 0 0 0 0 0 0 0 0 0 0 0 0 0 0 0 0 0 0 0 0 0
0 0 0 0 0 0 0 0 0 0 0 0 0 0 0 0 0 0 0 0 0 0 0 0 0 0 0 0 0 0 0 0 0 0 0 0 0 0 0 0 0 0 0
0 0 0 0 0 0 0 0 0 0 0 0 0 0 0 0 0 0 0 0 0 0 0 0 0 0 0 0 0 0 0 0 0 0 0 0 0 0 0 0 0 0 0
0 0 0 0 0 0 0 0 0 0 0 0 0 0 0 0 0 0 0 0 0 0 0 0 0 0 0 0 0 0 0 0 0 0 0 0 0 0 0 0 0 0 0
0 0 0 0 0 0 0 0 0 0 0 0 0 0 0 0 0 0 0 0 0 0 0 0 0 0 0 0 0 0 0 0 0 0 0 0 0 0 0 0 0 0 0
0 0 0 0 0 0 0 0 0 0 0 0 0 0 0 0 0 0 0 0 0 0 0 0 0 0 0 0 0 0 0 0 0 0 0 0 0 0 0 0 0 0 0
0 0 0 0 0 0 0 0 0 0 0 0 0 0 0 0 0 0 0 0 0 0 0 0 0 0 0 0 0 0 0 0 0 0 0 0 0 0 0 0 0 0 0
0 0 0 0 0 0 0 0 0 0 0 0 0 0 0 0 0 0 0 0 0 0 0 0 0 0 0 0 0 0 0 0 0 0 0 0 0 0 0 0 0 0 0
0 0 0 0 0 0 0 0 0 0 0 0 0 0 0 0 0 0 0 0 0 0 0 0 0 0 0 0 0 0 0 0 0 0 0 0 0 0 0 0 0 0 0
0 0 0 0 0 0 0 0 0 0 0 0 0 0 0 0 0 0 0 0 0 0 0 0 0 0 0 0 0 0 0 0 0 0 0 0 0 0 0 0 0 0 0
0 0 0 0 0 0 0 0 0 0 0 0 0 0 0 0 0 0 0 0 0 0 0 0 0 0 0 0 0 0 0 0 0 0 0 0 0 0 0 0 0 0 0
0 0 0 0 0 0 0 0 0 0 0 0 0 0 0 0 0 0 0 0 0 0 0 0 0 0 0 0 0 0 0 0 0 0 0 0 0 0 0 0 0 0 0
0 0 0 0 0 0 0 0 0 0 0 0 0 0 0 0 0 0 0 0 0 0 0 0 0 0 0 0 0 0 0 0 0 0 0 0 0 0 0 0 0 0 0
0 0 0 0 0 0 0 0 0 0 0 0 0 0 0 0 0 0 0 0 0 0 0 0 0 0 0 0 0 0 0 0 0 0 0 0 0 0 0 0 0 0 0
0 0 0 0 0 0 0 0 0 0 0 0 0 0 0 0 0 0 0 0 0 0 0 0 0 0 0 0 0 0 0 0 0 0 0 0 0 0 0 0 0 0 0
0 0 0 0 0 0 0 0 0 0 0 0 0 0 0 0 0 0 0 0 0 0 0 0 0 0 0 0 0 0 0 0 0 0 0 0 0 0 0 0 0 0 0
0 0 0 0 0 0 0 0 0 0 0 0 0 0 0 0 0 0 0 0 0 0 0 0 0 0 0 0 0 0 0 0 0 0 0 0 0 0 0 0 0 0 0
0 0 0 0 0 0 0 0 0 0 0 0 0 0 0 0 0 0 0 0 0 0 0 0 0 0 0 0 0 0 0 0 0 0 0 0 0 0 0 0 0 0 0
0 0 0 0 0 0 0 0 0 0 0 0 0 0 0 0 0 0 0 0 0 0 0 0 0 0 0 0 0 0 0 0 0 0 0 0 0 0 0 0 0 0 0
0 0 0 0 0 0 0 0 0 0 0 0 0 0 0 0 0 0 0 0 0 0 0 0 0 0 0 0 0 0 0 0 0 0 0 0 0 0 0 0 0 0 0
0 0 0 0 0 0 0 0 0 0 0 0 0 0 0 0 0 0 0 0 0 0 0 0 0 0 0 0 0 0 0 0 0 0 0 0 0 0 0 0 0 0 0
0 0 0 0 0 0 0 0 0 0 0 0 0 0 0 0 0 0 0 0 0 0 0 0 0 0 0 0 0 0 0 0 0 0 0 0 0 0 0 0 0 0 0
0 0 0 0 0 0 0 0 0 0 0 0 0 0 0 0 0 0 0 0 0 0 0 0 0 0 0 0 0 0 0 0 0 0 0 0 0 0 0 0 0 0 0
0 0 0 0 0 0 0 0 0 0 0 0 0 0 0 0 0 0 0 0 0 0 0 0 0 0 0 0 0 0 0 0 0 0 0 0 0 0 0 0 0 0 0
0 0 0 0 0 0 0 0 0 0 0 0 0 0 0 0 0 0 0 0 0 0 0 0 0 0 0 0 0 0 0 0 0 0 0 0 0 0 0 0 0 0 0
0 0 0 0 0 0 0 0 0 0 0 0 0 0 0 0 0 0 0 0 0 0 0 0 0 0 0 0 0 0 0 0 0 0 0 0 0 0 0 0 0 0 0
Wind_Speed
17 15 15 14 15 15 14 14 13 12 11 10 9 8 6 5 4 2 2 2 4 5 5 6 8 9 8 8 8 9 9 11 15 15 12 14 18 18 16 16 15 16 16
16 16 15 16 15 15 14 14 13 12 10 9 8 7 5 4 2 1 2 4 5 6 6 7 8 7 9 9 8 9 10 11 14 19 15 14 18 18 18 17 16 15 16
15 17 17 16 16 15 14 13 12 11 10 8 7 6 5 3 1 2 4 5 6 7 7 8 9 10 10 9 10 11 10 11 13 16 17 15 14 14 17 17 18 15 15
15 17 17 16 16 15 14 13 12 10 9 7 6 5 3 1 1 3 5 6 7 8 8 9 10 10 11 12 11 13 13 14 15 15 15 15 14 16 16 15 14 14 14
16 16 16 16 15 15 14 12 11 9 8 6 5 4 2 1 2 5 6 7 8 9 9 10 10 12 15 14 12 14 15 14 14 14 15 15 15 15 15 14 15 15 15
16 16 16 16 15 14 13 12 10 8 7 5 4 2 1 2 4 7 8 8 8 9 10 10 11 12 14 18 20 21 21 18 17 15 14 16 19 18 15 14 15 16 17
16 16 16 15 15 13 12 11 9 7 6 4 3 1 1 3 6 9 10 10 9 9 10 11 10 10 16 13 17 21 21 23 22 18 18 18 19 17 18 19 17 18 18
16 16 15 15 14 12 11 9 8 6 4 3 2 1 2 4 7 10 12 10 9 9 11 12 12 13 13 16 17 17 16 16 17 15 15 17 18 18 18 18 18 18 18
15 15 14 14 13 11 10 8 6 5 4 2 1 2 4 5 6 10 12 9 8 10 11 12 13 13 18 22 18 16 17 15 16 19 23 24 27 27 21 13 14 14 16
14 14 12 12 11 10 9 7 5 4 3 1 0 2 4 6 7 11 13 8 9 10 11 11 14 16 20 23 17 16 17 15 16 17 17 18 17 18 19 14 11 12 14
13 13 11 10 10 9 8 6 4 3 1 0 2 3 4 6 8 10 13 9 9 11 11 10 10 18 22 24 20 15 17 18 16 15 14 13 12 11 11 11 10 11 13
13 12 11 10 8 7 7 5 3 1 0 2 4 5 3 5 6 10 14 14 14 12 11 10 12 21 23 22 17 17 22 19 11 11 11 12 11 11 11 12 14 14 14
13 12 10 9 7 6 5 4 2 0 2 3 4 5 5 5 6 11 14 16 17 12 11 17 20 21 19 15 16 20 17 10 9 10 11 12 11 12 13 12 13 13 15
13 11 9 8 6 5 3 2 1 1 2 3 5 5 6 7 7 7 9 10 13 12 11 15 19 17 14 15 15 12 9 9 10 11 12 12 12 12 11 11 12 12 12
11 9 7 6 5 4 3 1 1 1 3 6 5 6 7 8 9 16 13 10 10 11 14 11 9 9 9 9 10 10 10 10 10 10 11 12 12 12 12 11 10 11 12
9 7 5 4 3 2 1 0 1 3 5 7 8 9 9 11 16 17 17 18 19 18 13 9 8 9 9 10 11 12 11 11 10 11 11 11 11 12 12 12 11 11 12
8 6 4 3 2 1 1 2 3 2 4 6 7 10 12 14 15 16 17 18 17 14 8 8 8 9 10 10 11 11 12 12 11 11 11 11 11 12 12 12 12 11 12
7 6 4 3 1 0 1 3 4 5 6 6 6 9 12 14 15 15 16 15 9 8 7 8 9 9 10 10 11 11 12 12 11 11 11 11 11 11 12 12 12 13 13
5 4 3 2 1 1 2 3 4 5 6 7 7 8 11 14 15 13 13 8 8 8 8 8 9 10 10 11 11 11 12 12 12 12 12 12 11 11 12 12 12 17 15
4 4 2 1 1 2 3 4 4 5 6 7 7 7 9 10 9 9 8 8 8 8 9 9 10 10 11 11 11 11 12 12 13 12 12 12 11 11 13 14 13 13 12
3 3 2 1 2 3 4 4 5 6 6 7 7 9 14 10 9 10 9 8 8 9 9 10 10 11 11 10 11 12 14 12 12 12 12 12 12 12 12 12 13 12 11
2 2 2 2 2 3 4 4 5 6 7 8 8 9 14 9 8 8 9 9 9 9 9 10 10 10 10 11 11 12 12 13 13 12 12 13 13 13 13 12 11 11 10
2 2 1 2 3 5 5 4 5 6 7 8 8 8 8 8 9 9 9 9 9 10 9 9 10 11 11 10 11 11 12 13 13 14 14 14 13 12 10 10 12 11 10
2 1 2 3 3 4 5 5 5 6 7 8 8 8 9 9 9 10 10 9 10 10 10 10 11 15 19 15 12 11 12 14 15 14 18 14 12 10 9 9 10 11 10
1 2 3 3 4 4 5 6 6 6 7 7 8 8 9 9 9 10 9 9 11 11 13 13 11 12 16 19 18 15 19 26 25 16 11 9 10 10 10 10 9 9 9
2 3 3 4 4 5 5 6 6 7 7 8 8 8 8 9 9 9 9 9 10 11 12 12 14 16 19 17 18 21 25 27 24 19 10 7 9 8 10 8 9 8 8
Wind_Direction
145 139 140 140 140 139 133 132 133 134 138 140 143 146 148 152 162 183 234 284 299 304 302 303 303 303 297 295 293 288 284 284 287 293 297 301 299 296 296 295 295 294 291
139 136 136 136 135 131 128 129 131 132 134 137 142 144 144 152 172 231 290 300 302 302 303 303 304 304 300 297 295 292 290 289 289 295 299 299 298 299 298 299 299 294 291
136 134 134 133 131 128 127 128 128 128 130 135 141 141 142 149 195 296 306 305 299 294 294 298 302 302 300 300 298 294 292 291 289 291 294 297 297 299 302 299 297 296 296
134 131 130 129 127 126 125 125 126 128 132 136 135 131 128 132 298 309 307 302 296 289 287 290 296 298 300 301 296 295 295 295 293 291 293 297 299 302 302 302 303 302 299
128 124 123 122 122 122 123 123 124 126 129 134 134 128 107 28 349 327 315 304 297 294 291 292 293 296 297 297 298 299 301 297 294 293 295 299 301 304 304 306 303 303 298
121 120 122 122 122 122 124 125 126 128 132 135 131 116 74 18 340 324 319 305 298 296 298 299 299 297 299 301 301 300 296 293 293 295 297 298 300 302 305 304 302 302 301
118 120 122 123 122 124 127 128 131 134 138 138 126 95 353 2 336 327 318 305 299 298 299 301 302 303 306 303 301 298 295 293 291 293 294 294 298 302 302 301 300 299 297
119 121 123 124 125 128 129 128 131 135 139 138 124 11 330 346 335 322 318 306 299 297 301 304 304 306 307 308 304 301 298 295 293 293 291 292 292 294 294 297 297 294 290
122 124 127 128 130 131 130 130 133 138 138 138 141 334 326 330 329 322 325 311 302 303 305 303 304 302 305 308 307 305 302 300 301 298 292 289 291 294 295 293 291 291 294
123 124 126 129 131 130 127 127 129 135 136 149 303 323 317 318 324 326 326 312 312 312 308 306 304 307 310 311 311 309 306 308 307 303 299 297 295 292 290 284 286 289 293
118 119 120 121 120 120 121 124 132 136 141 310 308 308 304 314 321 325 324 319 316 312 309 307 307 312 311 313 313 307 305 307 304 303 302 299 296 295 297 297 292 285 285
116 115 115 115 113 119 125 128 129 125 309 318 318 319 316 316 313 321 321 317 315 310 306 307 308 311 313 314 311 306 308 309 304 303 300 300 303 304 302 299 294 286 275
117 115 114 114 116 125 131 134 134 92 332 328 325 320 323 323 321 321 319 316 315 310 303 305 307 310 314 311 306 309 311 307 305 303 301 301 302 299 298 296 295 292 288
118 119 122 124 126 127 122 116 98 354 333 325 320 319 318 317 320 323 320 317 315 312 310 307 308 308 306 304 306 309 309 305 306 301 301 300 300 299 299 301 303 305 301
122 124 128 129 131 126 115 78 355 344 322 319 319 317 314 314 318 319 316 314 316 314 314 306 305 310 313 313 313 314 314 313 310 306 303 302 303 303 303 304 302 301 297
127 130 129 128 124 113 91 88 229 295 311 310 311 313 310 306 312 315 316 317 319 320 315 304 310 313 313 315 316 316 315 313 311 308 303 301 302 304 304 304 301 299 298
126 126 125 122 113 88 5 330 320 281 264 290 303 314 313 314 316 317 320 322 320 320 309 309 311 312 312 311 310 308 308 309 309 304 301 301 302 301 300 300 301 300 298
114 111 111 109 104 41 326 322 320 320 319 316 313 313 317 320 319 322 328 326 317 320 313 310 310 310 309 308 306 306 305 307 306 304 302 301 300 299 298 298 298 299 300
110 113 117 116 102 332 323 316 313 309 306 309 312 315 326 323 319 324 332 322 316 315 314 311 309 308 306 304 302 302 302 301 302 302 300 300 299 298 296 296 296 298 300
108 112 112 87 16 336 324 314 310 308 307 309 313 320 326 322 321 325 327 319 313 311 311 309 308 305 303 300 299 300 301 300 302 300 300 299 298 297 296 296 296 298 300
112 105 76 28 359 335 318 311 311 309 310 311 312 318 322 319 316 316 316 315 313 310 309 307 304 302 298 297 297 298 299 298 298 298 297 298 298 297 296 294 295 298 302
92 72 38 1 332 320 316 315 310 309 311 311 311 316 321 319 312 311 313 313 310 307 305 302 298 294 294 294 295 297 297 296 297 297 297 296 296 294 294 296 301 308 313
68 53 7 336 325 318 310 309 311 309 309 310 313 316 318 316 316 315 312 311 310 307 303 298 295 293 293 293 293 291 290 291 292 292 292 291 292 295 301 307 313 319 321
57 11 339 328 320 314 313 312 309 309 311 312 313 314 314 315 314 313 311 307 305 302 299 297 292 292 296 299 297 295 290 289 289 285 286 290 302 313 316 318 321 325 323
18 345 328 321 314 310 309 308 309 310 311 312 313 313 312 312 310 308 305 303 303 300 301 300 295 296 300 304 304 301 298 301 305 308 309 317 319 319 323 325 328 327 328
347 327 316 310 305 305 307 308 310 314 313 312 309 307 307 306 304 303 302 302 304 304 303 301 299 303 306 305 303 305 308 312 319 332 340 328 326 331 339 337 335 333 337